{"data":{"norad_id":56489,"epoch":"2026-05-24T19:23:04.415136Z","epoch_age_seconds":94814,"freshness":"FRESH","line1":"1 56489U 23064AT  26144.80768999  .00000078  00000+0  14319-4 0  9996","line2":"2 56489  69.9992 272.5551 0003252 269.1086  90.9701 14.98332129167630","mean_motion":14.98332129,"eccentricity":0.0003252,"inclination_deg":69.9992,"raan_deg":272.5551,"arg_perigee_deg":269.1086,"mean_anomaly_deg":90.9701,"bstar":1.4319e-5,"rev_number":16763,"period_min":96.106862565983,"perigee_km":569.78910660823,"apogee_km":574.30950778243,"semimajor_km":6950.1863071953,"source":"CELESTRAK","updated_at":"2026-05-25T13:38:18.075087Z"}}